Hyde Park, UT

11:08 AM MST on December 09, 2016 (GMT -0700)
Logan-Cache

Weather History for KLGU - October, 2012

Change the Weather History Date:

Thursday, October 11, 2012

  Actual Average Record
Temperature  
Mean Temperature 57 °F -  
Max Temperature 77 °F 67 °F 81 °F (1999)
Min Temperature 39 °F 34 °F 21 °F (2003)
Degree Days  
Heating Degree Days 8    
Growing Degree Days 7 (Base 50)    
Moisture  
Dew Point 33 °F    
Average Humidity 48    
Maximum Humidity 70    
Minimum Humidity 21    
Precipitation  
Precipitation 0.00 in - - ()
Sea Level Pressure  
Sea Level Pressure 29.89 in    
Wind  
Wind Speed 3 mph (NW)    
Max Wind Speed 13 mph    
Max Gust Speed 17 mph    
Visibility 10 miles    
Events      
Averages and records for this station are not official NWS values.
T = Trace of Precipitation, MM = Missing Value Source: NWS Daily Summary

Daily Weather History Graph

Daily Weather History Graph

Search for Another Location

Airport or City:

Trip Planner

Search our weather history database for the weather conditions in past years. The results will help you decide how hot, cold, wet, or windy it might be!

Date:

Astronomy

Oct. 11, 2012 Rise Set
Actual Time 7:35 AM MDT 6:51 PM MDT
Civil Twilight 7:07 AM MDT 7:19 PM MDT
Nautical Twilight 6:35 AM MDT 7:51 PM MDT
Astronomical Twilight 6:03 AM MDT 8:23 PM MDT
Moon 3:14 AM MDT (10/11) 4:32 PM MDT (10/11)
Length of Visible Light 12h 11m
Length of Day
11h 15m
Waning Crescent, 18% of the Moon is Illuminated
Oct 11
Waning Crescent
Oct 15
New
Oct 21
First Quarter
Oct 29
Full
Nov 6
Last Quarter

Hourly Weather History & Observations

Time (MDT) Temp. Windchill Dew Point Humidity Pressure Visibility Wind Dir Wind Speed Gust Speed Precip Events Conditions
12:51 AM 46.9 °F - 30.0 °F 52% 29.90 in 10.0 mi Variable 3.5 mph - N/A   Clear
1:51 AM 46.9 °F - 32.0 °F 56% 29.90 in 10.0 mi Calm Calm - N/A   Clear
2:51 AM 45.0 °F 42.6 °F 32.0 °F 60% 29.90 in 10.0 mi SW 4.6 mph - N/A   Clear
3:51 AM 41.0 °F 39.0 °F 30.9 °F 67% 29.91 in 10.0 mi ENE 3.5 mph - N/A   Clear
4:51 AM 41.0 °F - 30.0 °F 65% 29.91 in 10.0 mi Calm Calm - N/A   Clear
5:51 AM 39.9 °F - 30.0 °F 68% 29.92 in 10.0 mi Calm Calm - 0.00 in   Clear
6:51 AM 39.9 °F - 30.9 °F 70% 29.94 in 10.0 mi Calm Calm - N/A   Partly Cloudy
7:51 AM 42.1 °F - 32.0 °F 67% 29.96 in 10.0 mi Calm Calm - N/A   Clear
8:51 AM 43.0 °F - 32.0 °F 65% 29.99 in 10.0 mi Calm Calm - N/A   Clear
9:51 AM 51.1 °F - 32.0 °F 48% 29.98 in 10.0 mi Calm Calm - N/A   Clear
11:51 AM 66.0 °F - 34.0 °F 30% 29.94 in 10.0 mi NNE 3.5 mph - N/A   Clear
12:51 PM 70.0 °F - 36.0 °F 29% 29.91 in 4.0 mi WNW 4.6 mph - N/A   Haze
2:51 PM 75.9 °F - 35.1 °F 23% 29.84 in 10.0 mi Calm Calm - N/A   Clear
3:51 PM 75.9 °F - 34.0 °F 22% 29.83 in 10.0 mi NW 3.5 mph - N/A   Clear
4:51 PM 75.9 °F - 33.1 °F 21% 29.82 in 10.0 mi NW 6.9 mph - N/A   Clear
5:51 PM 75.0 °F - 35.1 °F 23% 29.82 in 10.0 mi NNW 3.5 mph - N/A   Clear
8:51 PM 61.0 °F - 37.0 °F 41% 29.86 in 10.0 mi South 12.7 mph 17.3 mph N/A   Mostly Cloudy
10:51 PM 60.1 °F - 37.0 °F 42% 29.83 in 10.0 mi SSW 6.9 mph - N/A   Mostly Cloudy
11:51 PM 53.1 °F - 37.9 °F 57% 29.84 in 10.0 mi NNW 4.6 mph - N/A   Scattered Clouds